This is the latest recevied weather packets stored in our database for station/object CA4LJZ-10. If no packets are shown the sender has not sent any weather packets the latest 1 day(s).
| Time | Temp. | Humidity | Pressure | Rain* | Wind** | Luminosity | Snow |
|---|---|---|---|---|---|---|---|
| 1777892457 | 17.78° C | 41% | 953.5 hPa | - | - | - | - |
| 1777891557 | 17.78° C | 40% | 953.5 hPa | - | - | - | - |
| 1777890656 | 18.33° C | 40% | 953.5 hPa | - | - | - | - |
| 1777889755 | 17.78° C | 40% | 953.5 hPa | - | - | - | - |
| 1777888854 | 18.33° C | 39% | 953.3 hPa | - | - | - | - |
| 1777887953 | 17.78° C | 41% | 953.6 hPa | - | - | - | - |
| 1777887048 | 17.78° C | 40% | 953.5 hPa | - | - | - | - |
| 1777886148 | 18.33° C | 39% | 953.6 hPa | - | - | - | - |
| 1777885247 | 18.33° C | 38% | 953.6 hPa | - | - | - | - |
| 1777884346 | 18.33° C | 39% | 953.5 hPa | - | - | - | - |
| 1777883445 | 20° C | 39% | 953.4 hPa | - | - | - | - |
| 1777882566 | 18.33° C | 37% | 953.2 hPa | - | - | - | - |
| 1777881664 | 18.33° C | 38% | 953.3 hPa | - | - | - | - |
| 1777880763 | 18.33° C | 39% | 953.5 hPa | - | - | - | - |
| 1777879862 | 18.33° C | 38% | 953.5 hPa | - | - | - | - |
| 1777878961 | 18.33° C | 38% | 953.6 hPa | - | - | - | - |
| 1777878061 | 18.33° C | 38% | 954 hPa | - | - | - | - |
| 1777877160 | 18.89° C | 38% | 954.2 hPa | - | - | - | - |
| 1777876259 | 18.89° C | 37% | 954 hPa | - | - | - | - |
| 1777875358 | 18.89° C | 37% | 954.2 hPa | - | - | - | - |
| 1777874457 | 18.89° C | 38% | 954.4 hPa | - | - | - | - |
| 1777873556 | 18.89° C | 37% | 954.4 hPa | - | - | - | - |
| 1777872655 | 19.44° C | 37% | 954.6 hPa | - | - | - | - |
| 1777871754 | 18.89° C | 37% | 954.9 hPa | - | - | - | - |
| 1777870918 | 18.89° C | 37% | 955.1 hPa | - | - | - | - |
* Rain since midnight (hover to see other rain measurements)
** Current wind speed in m/s (hover to see current wind gust speed)